GFSSE_850_thetae_000.txt.gz
Theta_e
347 340 338 341 340 342 342 343 344 344 342 341 337 335 336 342 344 344 338 336 337 337 337 340 338 338 342 344 342 342 342 339 339 341 338 332 338 340 338 340 344 342 341
346 345 339 337 342 344 345 345 343 343 337 342 340 333 331 340 339 343 344 339 339 341 341 339 339 339 343 342 342 344 341 342 343 342 340 338 340 338 340 341 345 342 343
346 350 342 330 340 342 344 344 343 340 334 335 339 333 332 333 333 341 344 344 341 340 342 342 341 340 343 344 341 338 339 341 343 344 342 341 341 338 341 343 344 344 343
340 340 331 328 338 341 343 344 343 342 341 338 339 339 338 337 338 335 337 341 344 342 340 342 342 343 343 343 342 338 335 338 343 343 344 343 342 339 341 343 343 342 340
335 329 329 333 336 340 342 344 342 340 339 338 337 334 332 332 333 333 334 335 338 343 344 342 342 342 344 343 343 342 338 336 342 341 342 343 344 341 339 340 340 337 337
336 334 330 333 337 339 343 344 341 337 331 323 319 315 314 318 325 329 330 331 333 335 338 341 342 342 342 342 343 343 341 338 336 337 343 342 342 341 340 339 340 339 336
335 337 334 336 337 337 339 341 334 323 319 316 313 312 314 315 312 312 314 315 320 328 332 334 339 340 342 342 342 342 343 338 337 336 342 342 341 338 339 340 338 335 332
334 342 336 334 333 331 327 324 319 316 311 311 311 314 318 318 314 313 312 311 312 313 319 329 331 335 339 340 342 342 342 342 338 333 338 342 341 339 338 337 334 330 330
330 332 340 334 334 324 319 317 313 311 312 312 312 316 322 323 322 315 316 312 310 311 312 313 324 330 335 337 339 341 340 340 338 339 335 340 340 339 337 334 331 332 331
323 327 329 331 330 326 314 313 311 312 312 312 312 312 313 315 317 314 318 313 312 311 310 313 315 320 329 335 336 340 340 338 330 331 332 339 341 339 337 333 330 331 331
322 321 323 324 324 322 319 315 312 311 312 312 312 311 310 311 312 312 314 317 314 313 315 320 321 322 323 330 336 339 339 336 331 331 332 333 339 337 333 328 328 330 328
318 319 318 318 318 315 314 312 312 312 312 311 311 310 309 309 307 308 310 314 313 317 316 318 324 325 321 329 337 340 340 336 336 337 339 339 331 333 329 322 328 330 329
316 315 315 314 313 312 312 312 313 312 311 311 310 309 309 307 306 306 307 307 310 311 313 318 320 324 322 321 330 337 339 338 337 337 333 336 336 331 329 324 324 327 327
315 314 313 313 313 313 312 313 313 312 311 310 308 307 307 306 305 305 305 306 308 310 312 314 316 319 321 323 324 323 336 338 338 337 337 334 336 334 331 324 329 324 323
315 314 314 313 313 313 313 312 312 311 310 309 307 306 306 304 304 304 303 304 305 306 307 307 309 312 317 320 322 324 327 338 339 337 334 335 335 337 333 324 332 331 323
314 313 313 314 313 312 312 312 311 311 309 307 306 304 304 302 302 301 301 301 302 302 301 302 303 308 313 318 320 322 328 325 328 338 337 335 335 337 334 327 328 335 330
313 313 314 314 313 313 312 311 311 310 308 306 304 303 302 301 300 300 300 301 302 300 300 300 301 303 306 311 319 320 322 325 325 327 332 337 335 336 334 332 328 332 332
312 313 314 313 312 312 312 311 310 308 307 305 303 302 301 300 299 299 299 300 303 301 300 300 300 302 302 303 311 318 322 324 322 320 325 337 338 335 335 334 329 329 333
311 311 312 312 311 311 311 309 308 307 306 304 302 302 300 299 299 298 299 300 301 300 300 300 300 303 304 305 304 306 318 322 324 327 323 324 335 338 336 334 333 325 332
311 311 310 310 310 310 309 308 307 305 304 303 302 302 300 299 298 299 300 301 302 302 302 301 302 305 306 304 307 310 308 315 320 322 329 326 323 328 335 334 334 330 327
309 310 309 309 309 308 308 308 306 304 303 302 302 302 300 300 299 300 302 302 302 303 303 302 301 301 303 306 306 307 308 312 312 318 321 329 327 324 332 334 332 332 328
307 307 306 307 308 307 308 307 304 303 301 301 302 302 301 301 300 301 301 302 302 302 302 301 302 302 301 303 305 305 306 307 308 309 314 320 328 326 328 332 333 331 331
306 306 307 305 305 306 306 305 303 302 301 301 301 300 301 300 301 301 301 301 301 301 300 301 301 302 302 302 303 303 306 306 306 310 316 321 323 321 325 329 333 331 329
307 306 305 306 305 304 304 303 302 301 301 300 300 300 300 300 300 301 301 301 301 301 300 300 300 301 301 302 302 302 304 304 304 308 308 310 319 324 321 323 329 331 330
306 306 305 306 304 304 303 302 302 301 301 301 300 299 299 300 300 300 300 300 301 300 300 300 300 300 300 300 301 302 303 303 302 305 308 309 309 311 324 326 326 329 330
307 306 305 305 304 303 303 302 301 301 301 301 300 300 300 300 299 299 299 300 300 300 300 300 300 300 300 301 301 301 301 302 301 304 307 307 308 307 312 325 326 328 329

GFSSE_850_thetae_003.txt.gz
Theta_e
346 342 331 338 342 344 344 343 343 339 343 341 334 333 342 340 341 344 340 338 340 341 340 338 338 338 343 341 341 342 340 341 342 342 337 334 339 339 337 337 341 339 340
348 344 335 326 339 342 343 343 339 333 338 343 332 331 332 333 337 343 344 342 339 339 342 341 340 339 343 342 339 339 339 340 344 341 337 339 339 337 338 339 342 340 343
347 343 326 327 337 342 343 343 341 339 336 337 337 336 335 331 332 333 338 342 344 340 340 342 342 343 343 344 340 334 335 341 343 342 339 340 339 337 339 342 343 343 343
339 329 327 327 335 341 343 342 340 339 338 336 332 330 330 330 330 329 329 333 339 344 344 341 342 342 344 343 343 339 333 338 343 343 343 342 339 338 338 341 343 341 337
332 327 323 329 336 341 343 342 339 333 327 321 315 312 312 315 320 324 327 328 329 333 337 342 342 342 342 344 343 342 336 336 341 340 339 340 342 340 338 339 338 338 337
331 324 326 334 340 342 342 335 325 320 315 313 312 313 312 311 312 312 313 314 321 328 332 334 339 341 342 342 342 342 341 336 339 340 342 340 340 340 339 340 339 339 338
333 331 333 334 336 339 337 324 315 311 311 312 314 315 316 316 314 314 312 311 312 313 321 330 333 336 339 340 341 341 342 339 338 338 341 342 342 340 339 338 338 337 333
337 334 330 330 329 323 320 315 310 311 312 312 315 316 318 318 320 316 315 312 311 310 312 314 326 332 334 337 340 341 340 342 340 337 342 343 343 342 340 339 335 333 331
335 335 332 332 323 318 316 311 312 312 312 312 312 313 313 315 318 314 315 313 312 312 311 312 313 317 328 334 337 337 338 339 340 338 336 340 340 340 340 339 336 330 327
330 330 332 329 325 316 312 312 312 312 313 313 312 311 311 311 311 313 312 312 314 312 316 316 315 314 312 324 331 334 336 339 337 335 332 338 337 341 339 329 333 329 326
325 328 329 326 322 319 315 313 312 312 313 313 312 311 310 309 308 308 309 312 312 313 315 315 316 322 316 311 330 338 338 337 338 333 329 332 335 334 334 338 331 326 326
320 321 322 325 322 317 313 312 312 313 313 312 311 310 308 307 306 306 306 306 308 309 312 312 315 318 319 319 322 334 338 338 336 333 331 334 335 333 331 332 331 326 328
319 317 317 315 313 312 311 312 313 312 312 311 310 309 306 305 305 305 305 305 306 306 308 308 310 314 316 319 321 323 325 334 337 334 335 337 334 334 334 336 332 326 329
316 316 314 313 312 311 312 313 313 313 311 310 309 308 306 305 305 305 304 304 304 304 304 304 305 307 313 317 318 322 323 324 334 336 336 336 336 336 336 335 334 333 331
315 314 313 312 312 312 313 314 314 313 311 310 308 307 305 305 304 304 303 303 303 302 302 302 302 303 304 307 316 319 320 326 329 334 338 340 339 337 337 335 333 332 333
315 314 313 313 312 313 314 314 314 314 312 309 307 306 304 303 303 302 302 301 301 301 300 301 301 301 301 302 304 313 319 321 325 326 326 329 338 337 337 336 335 332 334
314 314 313 313 313 314 314 314 314 314 311 308 306 304 302 301 300 300 299 300 300 300 299 299 299 299 299 300 300 301 309 317 321 322 323 324 327 336 337 335 335 332 334
315 314 313 313 313 314 314 314 313 313 310 308 305 303 301 300 299 299 299 299 300 300 299 299 299 299 299 299 299 299 300 302 312 321 323 324 323 322 335 335 335 333 331
314 314 313 313 313 313 313 313 313 312 309 307 304 302 301 300 299 298 299 300 300 300 301 300 300 300 301 300 302 302 299 299 301 311 322 323 326 326 326 335 335 334 333
313 313 313 312 312 312 312 312 312 310 308 305 303 302 301 299 299 298 299 300 301 301 301 301 300 300 300 300 302 304 305 301 299 301 307 318 323 327 328 327 330 335 333
313 312 311 311 311 311 312 312 311 309 306 304 302 301 300 299 298 299 300 301 301 301 301 301 300 301 301 300 299 299 299 300 301 299 304 310 313 319 325 330 325 326 334
313 312 310 309 309 310 310 310 309 307 305 303 301 300 299 299 299 299 300 300 301 300 301 300 300 300 300 300 300 301 302 301 302 302 301 303 313 316 323 327 331 324 328
313 312 310 308 308 308 308 309 308 306 304 302 300 299 299 300 299 300 300 300 300 301 300 301 300 300 300 300 300 301 301 301 302 302 300 301 302 305 312 320 330 328 328
315 312 309 307 307 307 307 308 307 305 303 301 300 299 299 299 299 300 300 299 299 300 301 301 301 300 301 300 300 300 300 302 302 301 301 301 302 305 307 311 322 328 327
315 313 308 305 306 306 306 307 306 304 303 301 299 299 299 299 299 299 298 298 299 300 300 300 300 300 300 300 300 300 300 301 300 301 302 301 301 302 305 306 309 322 327
314 312 308 306 306 305 305 305 304 303 302 300 299 299 299 299 299 298 297 298 299 299 299 300 300 299 300 300 300 299 299 300 301 302 302 302 300 301 304 305 306 309 322

GFSSE_850_thetae_009.txt.gz
Theta_e
340 333 330 335 339 340 341 331 338 335 331 330 331 331 331 337 341 342 341 338 339 341 340 339 337 340 338 340 339 337 338 340 340 340 331 334 336 337 338 340 337 338 338
343 334 326 331 338 341 340 335 333 334 333 333 330 329 329 330 333 336 340 343 342 340 341 341 341 341 340 335 333 336 340 343 341 337 333 336 337 335 337 338 337 339 338
343 330 326 332 340 342 340 337 337 333 331 330 330 330 329 329 328 330 335 341 343 343 341 340 342 343 343 339 333 334 341 342 341 336 338 337 333 335 338 340 340 341 340
335 327 324 331 340 341 339 337 332 321 315 313 313 315 318 321 323 326 327 329 332 337 340 341 341 342 343 343 338 333 339 341 340 339 339 337 335 337 340 341 342 341 337
328 325 324 333 341 340 336 329 318 315 315 312 313 313 312 312 312 313 317 324 328 331 332 336 340 341 341 342 343 338 337 341 342 342 341 338 339 338 337 340 341 338 335
326 321 321 337 342 339 325 319 315 315 316 315 315 314 313 312 311 310 311 312 315 323 330 332 335 338 340 341 342 342 338 340 339 339 341 341 342 339 337 338 338 337 336
324 320 327 341 341 326 319 314 313 314 315 314 313 312 312 311 311 311 310 310 311 313 316 326 332 334 339 340 340 342 342 339 339 339 339 340 339 339 340 339 337 336 337
321 322 330 341 336 323 313 311 312 313 313 314 314 314 314 313 312 314 312 310 310 310 310 313 320 327 333 337 341 341 341 341 340 340 340 340 341 339 339 340 339 339 336
326 324 323 336 333 319 311 311 312 312 313 313 313 313 313 313 312 312 313 311 310 310 310 311 311 312 317 329 337 340 340 339 339 340 339 338 337 338 339 339 340 340 338
330 325 323 330 325 316 310 312 312 312 313 313 312 311 311 310 310 310 310 310 310 310 311 312 310 311 313 315 325 333 336 337 337 338 340 340 337 335 339 339 338 341 339
331 328 323 323 321 315 311 312 312 313 313 313 312 310 309 308 308 307 307 307 308 309 310 312 311 313 314 314 315 326 332 336 335 337 341 338 337 331 335 338 339 340 338
327 328 325 322 317 314 311 312 312 313 313 313 312 311 309 308 307 307 307 306 306 307 308 310 311 312 313 314 316 324 328 332 333 333 334 336 334 333 332 334 334 336 339
323 324 325 323 318 314 312 312 312 313 313 313 313 313 312 310 308 306 306 306 305 305 305 305 306 306 309 312 314 316 318 320 323 328 334 336 335 335 336 334 335 334 336
320 320 323 322 321 317 315 313 312 313 314 314 314 314 313 310 307 307 306 305 305 304 304 304 304 304 303 304 307 312 314 317 317 317 327 333 335 337 337 337 336 336 336
318 317 318 320 321 324 324 314 311 312 313 314 314 314 313 309 307 306 305 304 304 303 303 303 303 303 303 302 302 302 305 312 315 317 325 331 332 334 335 335 337 338 337
318 317 316 317 319 320 320 313 311 312 313 313 314 314 312 309 306 305 304 303 302 303 303 302 302 302 302 302 302 302 301 301 302 310 315 324 330 331 331 330 334 336 337
318 318 317 316 316 316 314 311 311 312 313 313 313 313 312 309 306 304 302 302 302 302 302 301 301 301 301 301 301 301 301 301 301 301 301 306 316 323 326 326 327 332 336
319 318 317 316 315 313 312 311 311 312 312 312 312 312 311 308 305 303 302 301 301 301 300 300 300 300 300 300 300 300 300 300 300 300 300 300 300 301 311 319 322 324 331
318 318 317 315 314 313 311 311 311 312 312 312 312 311 310 307 304 302 301 300 300 300 299 299 299 299 299 298 298 298 298 299 299 299 300 300 300 300 299 301 312 320 324
318 317 316 315 314 313 312 311 311 311 311 311 311 310 309 305 302 301 300 299 299 299 299 299 298 298 298 297 297 297 297 298 298 299 298 298 298 299 299 299 299 306 319
317 316 316 315 314 313 312 311 310 311 311 311 311 309 307 303 301 300 299 299 299 299 299 299 299 299 298 298 299 299 298 298 299 297 297 297 298 298 297 297 297 298 303
317 316 316 315 314 313 312 311 310 310 310 310 310 309 305 302 300 299 299 299 299 299 299 299 299 299 299 298 300 299 299 298 299 296 297 296 297 298 298 297 296 297 299
317 316 316 315 314 313 312 310 309 309 309 309 310 308 304 302 300 299 299 299 299 298 298 298 298 299 298 298 299 298 299 299 298 298 296 296 297 298 300 300 299 298 299
317 317 316 315 314 314 312 310 310 310 310 310 309 306 304 301 299 299 299 299 298 297 298 298 298 298 299 298 297 298 298 298 298 299 297 297 298 298 299 300 300 300 300
318 317 316 315 314 313 313 311 310 309 308 308 308 305 303 300 299 299 298 298 298 297 297 298 298 298 298 298 298 298 298 298 298 299 298 297 298 299 299 299 300 300 301
318 317 316 315 314 313 312 311 309 308 308 308 308 305 303 300 299 299 298 298 297 297 297 298 298 298 298 298 298 298 298 298 298 298 299 299 298 298 298 299 300 300 302

GFSSE_850_thetae_012.txt.gz
Theta_e
336 331 326 331 340 341 335 334 332 330 329 330 331 331 335 339 340 340 339 338 340 340 340 338 338 339 337 338 336 335 338 340 339 339 332 333 337 337 337 339 339 337 337
342 327 325 331 341 341 336 333 333 341 341 336 339 343 337 338 344 344 345 342 340 340 340 341 339 341 336 332 330 336 339 342 339 334 334 336 336 335 338 337 336 338 336
343 330 324 330 340 341 337 335 337 337 332 331 329 329 328 328 329 333 340 344 344 341 340 341 342 342 342 336 330 336 341 341 339 335 337 338 336 337 338 339 340 339 339
340 328 323 328 339 340 337 335 328 322 319 319 318 319 321 323 325 326 327 330 334 338 340 340 341 343 342 341 337 333 339 341 338 338 338 335 336 337 340 340 341 341 337
330 326 323 329 340 339 336 330 319 316 314 313 313 312 312 311 313 316 322 326 329 331 333 337 339 341 342 342 341 336 337 341 341 341 340 337 337 339 339 340 341 340 336
327 324 321 332 340 337 331 321 317 315 314 313 313 312 312 311 310 311 312 314 321 327 331 333 335 340 341 341 342 341 337 339 338 339 341 340 341 339 338 336 338 337 337
327 321 321 338 341 332 321 317 315 314 314 313 313 312 312 311 312 311 310 310 311 314 321 328 332 334 338 340 340 342 341 338 338 337 338 338 339 339 339 340 339 337 337
324 320 326 341 340 324 319 314 313 313 313 313 314 314 314 313 313 313 311 310 310 310 311 313 317 327 331 335 339 340 341 341 339 339 338 338 339 339 339 339 340 339 338
323 320 330 342 334 325 316 312 312 312 313 313 313 312 312 312 312 312 311 311 310 310 310 310 311 313 317 327 332 338 340 340 340 340 337 337 338 337 337 338 339 339 340
323 323 324 336 337 328 314 311 312 312 313 313 313 311 311 310 309 309 309 309 309 310 311 312 311 312 312 314 326 335 338 338 336 336 338 337 338 338 336 338 338 338 341
325 326 323 330 333 325 312 311 312 312 313 313 312 311 310 309 308 307 307 307 307 308 309 311 311 313 315 314 316 326 333 339 334 334 335 336 338 337 333 331 337 337 339
323 326 324 323 326 320 312 311 312 312 313 313 313 312 312 311 309 307 306 307 307 307 307 308 309 310 311 313 315 318 324 328 331 331 333 335 335 334 334 335 332 335 334
319 321 324 319 320 317 313 311 312 312 313 313 313 313 313 312 311 307 306 306 306 305 305 304 304 305 306 309 312 315 317 319 322 324 328 333 334 335 336 337 336 335 335
319 318 320 320 318 315 314 311 312 312 312 313 313 313 313 313 312 308 306 305 305 304 304 304 303 303 303 303 304 307 311 313 315 317 318 324 332 333 336 337 336 336 338
319 318 319 318 318 317 314 312 313 311 312 313 313 313 314 313 311 309 307 305 305 304 303 303 303 303 302 302 302 302 302 303 308 312 314 320 327 329 332 333 334 335 336
319 318 318 318 319 319 318 317 318 314 311 312 313 313 313 313 311 309 306 304 304 303 303 303 303 302 302 302 302 302 301 301 301 301 302 309 316 324 329 331 333 333 334
319 318 317 317 318 318 318 319 320 318 311 312 312 312 313 312 311 308 305 303 303 302 302 302 302 302 301 301 301 301 301 301 301 300 300 301 301 303 310 319 325 328 330
318 318 318 318 318 317 317 318 318 313 310 311 312 312 312 311 310 307 304 303 302 301 301 301 301 301 301 301 301 300 300 300 300 300 300 301 301 301 301 301 302 308 321
319 318 319 318 318 317 317 316 315 312 310 311 312 311 311 310 308 306 303 302 301 301 300 300 301 300 300 300 300 300 299 299 299 300 300 300 301 301 301 301 301 301 302
319 318 319 319 318 317 315 314 312 310 310 311 311 311 311 310 308 304 302 301 301 300 300 300 300 299 299 299 299 299 299 299 299 300 300 299 299 299 299 300 301 301 300
318 318 319 319 318 316 315 312 311 311 311 311 311 310 310 309 307 304 302 301 300 299 299 299 299 298 298 298 298 298 298 298 299 299 298 298 299 299 299 299 299 300 300
319 318 318 319 318 317 315 313 312 312 311 310 310 310 309 308 306 303 301 300 299 299 299 298 298 298 298 298 297 297 297 298 298 297 298 297 297 297 298 300 301 301 300
320 319 318 318 317 316 315 313 312 310 309 309 310 310 310 307 305 302 300 299 299 299 298 298 298 298 297 297 297 297 298 298 297 297 297 297 296 296 297 297 301 302 301
320 320 319 317 317 316 315 314 313 312 312 311 311 310 308 307 304 302 300 299 299 298 297 297 297 297 297 297 297 298 297 298 298 298 298 297 297 297 297 297 298 301 302
319 319 319 318 317 316 315 314 313 312 311 309 309 309 308 306 303 301 300 299 298 298 297 297 297 297 297 297 297 298 298 298 298 298 298 298 297 297 297 297 298 299 302
318 318 318 318 317 316 315 314 313 313 311 309 308 308 308 305 303 300 299 299 298 298 297 297 297 297 298 298 298 297 298 298 298 298 298 298 298 297 298 298 298 299 301

GFSSE_850_thetae_015.txt.gz
Theta_e
331 326 323 335 343 339 338 338 331 339 335 341 342 344 345 345 340 339 338 339 340 340 339 337 340 336 337 336 334 336 338 340 339 337 335 334 338 337 339 335 335 336 339
334 326 324 334 342 339 346 333 334 339 339 338 342 337 340 343 343 345 345 343 339 340 341 339 341 338 335 331 332 338 341 341 338 332 334 338 337 337 340 338 337 336 336
341 330 325 331 342 339 334 335 340 342 336 332 333 328 329 331 335 342 343 345 344 341 340 341 341 342 339 335 330 337 340 340 336 335 336 336 337 338 339 340 340 340 336
340 330 324 327 339 342 337 335 332 330 327 325 324 324 325 325 325 326 328 333 335 337 341 340 342 342 342 339 335 332 338 339 337 338 337 334 337 338 340 340 340 340 336
335 329 324 326 342 341 336 332 324 317 315 313 313 312 311 313 316 321 325 327 328 330 333 339 341 341 342 342 339 335 337 339 340 340 339 337 337 339 340 340 341 339 336
331 327 321 327 342 343 335 330 320 316 313 312 312 311 311 310 310 311 313 318 324 327 329 332 336 343 341 341 341 340 337 338 338 339 341 340 341 339 338 338 338 338 337
330 325 318 328 342 340 334 325 318 315 313 313 312 313 313 312 311 311 310 310 311 314 320 325 331 334 339 339 341 341 341 338 338 337 338 339 339 339 338 338 340 339 337
329 323 319 335 339 337 328 321 315 313 312 313 313 314 313 313 312 311 311 310 310 310 310 310 318 326 331 334 338 341 341 341 339 338 338 339 339 339 339 339 338 339 339
327 322 320 335 341 336 326 318 312 312 313 313 313 312 312 311 311 310 309 309 309 309 309 309 309 312 317 324 333 339 341 340 340 339 339 335 337 337 337 337 338 339 339
326 321 319 332 341 331 326 315 312 312 312 313 313 312 311 310 309 309 308 308 307 308 309 309 310 310 310 312 322 332 338 339 339 337 338 335 336 337 338 337 338 339 338
326 322 320 326 340 333 327 313 311 312 313 313 313 312 312 311 310 309 308 307 307 307 307 308 309 310 311 312 313 322 331 336 334 331 331 334 335 337 337 334 331 337 336
325 324 323 322 327 334 328 313 311 312 313 313 313 313 313 313 312 309 308 307 307 307 307 307 307 307 308 310 312 314 320 326 330 330 329 332 334 335 335 336 338 334 334
323 322 320 323 321 330 325 313 311 312 312 313 313 313 313 313 313 311 308 307 306 306 305 305 305 305 305 306 309 311 314 316 318 320 322 328 332 333 335 336 337 337 337
322 321 319 322 320 324 322 314 311 312 312 313 313 313 313 313 313 311 309 306 305 305 304 304 304 304 304 303 303 304 306 310 312 314 315 317 328 330 333 335 335 336 336
324 323 319 319 320 319 318 315 311 311 312 312 313 313 313 313 313 312 309 307 305 305 304 303 303 303 303 303 303 303 302 302 302 305 309 312 316 322 326 330 333 333 334
323 323 320 318 319 318 317 314 312 311 312 311 312 313 313 312 313 312 310 307 305 304 304 303 303 302 302 302 302 302 302 302 301 301 301 302 304 309 316 324 329 330 332
322 322 321 319 318 317 317 317 313 312 314 314 311 312 312 312 313 312 310 307 304 303 303 303 303 302 302 302 301 302 301 301 301 300 301 301 301 301 301 302 305 313 325
322 322 322 320 319 318 317 318 317 317 319 319 312 311 312 312 312 312 310 307 304 303 302 302 302 301 301 301 301 300 300 301 300 300 300 300 301 301 301 301 302 302 302
321 322 322 320 319 318 319 318 318 318 318 317 312 310 312 312 312 312 310 306 303 302 302 302 301 301 301 301 300 300 300 300 300 300 300 300 300 301 301 301 301 301 301
320 321 321 321 320 320 320 320 319 319 317 316 311 310 311 311 312 311 309 305 303 302 301 301 301 301 300 300 300 300 300 300 300 299 300 299 299 300 300 300 301 301 301
320 321 321 320 320 320 320 320 319 317 315 314 311 310 311 311 311 310 308 304 302 301 301 300 300 300 299 299 299 300 300 299 299 300 300 299 299 299 298 299 300 301 302
319 320 320 320 319 319 319 318 317 316 315 313 310 310 310 310 310 309 307 303 301 300 300 300 299 299 298 298 298 298 299 299 299 299 299 299 299 298 298 297 297 298 301
319 319 320 320 319 319 319 318 317 315 313 311 310 310 310 310 309 308 306 303 301 300 300 299 298 298 298 298 298 298 299 300 299 298 298 298 298 298 298 298 298 298 299
319 319 319 320 319 318 318 318 317 316 314 312 311 310 310 309 309 307 305 302 300 300 299 298 298 298 297 297 297 297 297 297 299 300 299 298 298 298 298 298 298 297 297
317 318 318 319 319 318 318 318 317 315 314 313 311 310 309 309 308 306 304 302 300 299 299 298 297 297 297 297 297 297 297 297 297 298 299 299 299 298 299 298 298 298 297
316 316 317 317 318 318 318 318 317 316 315 313 311 310 309 309 307 306 303 301 300 299 299 298 297 297 297 297 297 297 297 298 298 299 299 299 299 299 299 299 299 298 298

GFSSE_850_thetae_018.txt.gz
Theta_e
329 323 324 335 344 337 344 333 338 344 341 343 345 345 346 343 344 345 344 344 342 340 338 341 344 338 336 334 334 336 338 340 339 336 336 336 338 337 338 343 342 346 336
329 334 324 336 340 338 342 330 331 339 337 343 339 342 344 344 345 345 346 346 341 340 341 338 343 342 333 331 336 340 341 339 335 333 336 336 335 338 341 338 342 337 336
334 341 332 341 341 338 336 338 344 340 332 332 328 330 331 336 336 341 344 343 344 342 340 341 342 342 338 333 334 338 340 338 335 335 337 345 341 338 339 341 340 339 334
343 344 343 334 344 341 343 339 339 334 329 327 326 325 325 324 325 326 327 330 337 340 342 343 342 342 342 338 334 336 339 338 338 339 345 344 345 340 340 340 341 339 334
346 344 334 329 346 346 340 335 331 326 318 315 313 312 312 313 315 319 323 325 328 331 334 338 343 342 342 341 339 336 340 340 340 345 347 345 344 341 340 341 341 339 336
345 343 327 325 345 343 337 332 323 318 316 313 311 311 311 310 310 310 311 315 323 327 328 331 335 339 341 342 341 339 337 339 341 343 343 342 344 339 338 338 339 339 337
343 342 334 322 341 343 337 331 321 318 314 313 312 313 313 312 311 311 310 310 310 311 316 325 329 331 334 338 340 343 340 339 346 343 341 341 339 339 338 338 339 339 339
340 339 340 323 338 342 337 329 321 314 312 313 313 313 313 312 311 311 310 310 310 309 309 310 314 322 327 333 338 342 341 340 342 342 340 340 338 338 338 338 338 338 339
338 338 338 343 338 340 335 326 318 312 312 313 313 312 311 311 310 310 309 309 308 308 309 309 309 311 315 322 331 338 340 340 341 340 340 338 335 337 337 336 338 338 339
339 337 337 340 343 340 333 324 315 312 312 313 313 312 311 311 311 311 310 308 307 308 308 308 309 309 310 311 318 328 338 339 339 338 337 337 336 335 336 338 337 338 339
339 338 337 337 338 338 333 325 314 311 312 313 313 312 312 312 312 312 310 309 307 308 308 308 308 309 310 311 313 319 328 331 334 334 333 326 334 335 337 337 335 332 338
339 338 338 336 335 335 330 327 315 311 312 313 313 313 313 313 313 313 312 310 308 307 307 307 306 306 307 309 311 313 316 322 327 329 327 322 328 331 335 336 337 337 334
336 338 336 335 333 333 332 328 317 311 312 313 313 313 313 313 313 314 313 311 308 306 306 306 306 306 305 305 307 309 311 314 317 320 318 320 326 332 333 334 336 337 337
336 337 331 335 332 330 327 331 321 311 312 312 313 313 313 313 312 313 313 311 308 306 305 305 305 305 305 304 304 304 304 306 310 312 312 314 317 327 329 332 335 335 336
335 337 336 331 330 328 322 329 323 311 311 312 312 313 313 313 312 313 314 312 310 306 305 304 304 304 304 304 304 303 303 303 303 304 305 308 311 314 318 321 328 333 333
334 336 336 332 325 325 320 324 323 314 311 312 312 312 313 313 312 312 313 312 310 307 304 304 304 303 303 303 303 303 302 302 302 302 302 302 302 304 308 313 318 324 330
333 334 335 332 323 323 319 318 320 317 312 311 312 311 312 312 312 312 313 312 311 307 304 303 303 303 302 302 302 302 302 301 301 301 301 301 301 302 302 302 303 304 309
330 333 334 331 323 321 319 319 318 316 314 312 312 312 311 311 312 312 312 312 311 307 304 303 303 302 302 302 302 302 301 301 301 300 300 300 300 301 301 302 302 302 303
326 329 332 332 324 323 320 320 319 318 316 313 313 318 317 311 311 312 312 312 310 307 303 302 302 301 301 301 301 301 301 301 300 300 300 300 300 300 301 301 302 302 302
323 325 329 332 326 324 323 321 321 320 319 318 318 319 317 311 311 311 311 311 309 306 303 302 301 301 301 301 301 301 301 300 300 300 301 301 301 300 300 300 300 300 302
321 322 324 328 326 325 324 323 322 321 320 319 319 318 316 311 310 311 311 311 309 306 303 302 301 301 301 301 301 304 303 301 302 301 302 302 302 300 299 299 299 299 299
319 321 321 323 326 325 323 321 321 320 320 319 319 317 314 311 310 310 310 310 308 306 303 301 301 300 300 300 302 302 305 305 303 303 302 301 301 301 301 300 299 299 299
319 319 320 320 321 323 321 323 323 318 317 318 318 316 314 311 310 310 310 309 308 305 303 301 300 300 303 300 299 301 304 305 303 303 302 302 301 302 302 301 300 301 301
318 318 318 319 319 320 320 321 321 321 319 319 318 317 314 311 309 310 309 308 307 305 302 301 300 299 299 302 301 299 300 301 302 303 303 302 302 302 302 302 302 302 302
315 316 317 317 317 318 317 319 320 320 319 318 317 316 313 310 309 309 309 308 306 304 302 301 300 299 298 301 302 302 302 302 302 301 302 303 302 301 301 301 302 302 301
315 316 315 316 316 316 315 315 318 319 318 315 315 315 313 310 309 309 308 308 306 304 302 300 299 298 299 300 301 301 301 301 301 301 301 301 300 300 301 301 302 302 302

GFSSE_850_thetae_021.txt.gz
Theta_e
340 329 329 337 344 340 341 332 344 342 343 343 345 345 344 345 346 346 345 345 342 345 339 345 341 336 334 333 337 338 340 339 337 336 335 338 337 338 340 342 344 337 338
341 343 321 333 339 338 337 330 333 336 341 341 339 343 343 344 344 345 345 346 344 342 342 340 344 336 332 337 340 341 340 336 333 335 336 336 337 339 339 343 342 335 337
342 345 325 336 339 344 338 340 342 338 330 329 329 330 330 334 332 330 334 343 344 343 343 342 343 344 337 334 340 340 339 335 336 341 344 346 337 339 340 341 341 336 333
343 347 347 333 340 338 335 338 339 332 329 328 325 323 321 321 322 324 326 328 333 337 342 343 342 342 341 338 340 343 339 338 340 345 346 344 346 339 340 340 341 337 336
344 346 346 334 344 344 339 337 333 331 321 316 313 311 311 311 312 315 319 324 326 327 331 337 343 344 342 341 338 339 340 340 343 344 344 343 344 340 340 341 341 338 338
347 346 345 328 346 345 339 335 329 322 317 313 311 311 311 311 311 310 310 310 314 321 326 329 332 338 340 341 341 340 338 339 345 345 345 342 343 338 338 338 338 338 337
347 346 344 323 341 342 338 335 328 322 315 313 312 313 313 312 311 311 310 310 310 310 311 316 324 328 332 338 341 342 339 340 343 343 344 345 340 338 338 338 338 339 340
345 344 345 328 337 340 341 335 328 321 313 312 313 313 312 312 311 311 310 309 309 309 309 309 310 313 322 332 341 340 340 341 342 342 341 341 338 338 338 337 337 338 338
340 338 339 343 339 337 342 335 326 318 312 312 313 312 312 311 311 312 312 310 309 308 308 309 309 309 311 317 325 335 339 340 343 342 343 338 338 334 336 337 336 339 338
336 337 335 343 344 339 340 334 324 317 312 312 313 313 312 312 312 313 313 311 309 308 308 309 309 309 309 310 314 323 334 338 343 340 337 335 338 337 335 333 337 336 339
337 337 335 339 343 341 339 335 324 316 312 312 313 313 312 313 313 313 313 312 310 308 308 308 308 308 308 310 311 316 326 332 334 335 332 329 326 336 334 336 338 336 337
337 337 335 336 339 340 338 336 324 316 312 312 313 313 314 313 313 312 314 314 312 309 308 307 307 306 307 309 310 312 317 321 330 329 319 322 320 326 331 335 336 337 336
336 337 336 336 335 337 337 334 329 326 319 316 314 313 314 314 312 311 313 315 314 310 307 306 306 306 306 306 306 307 310 315 321 323 315 316 319 326 331 333 334 336 337
335 337 337 336 335 334 334 332 329 325 317 314 313 313 313 313 312 311 312 313 313 311 308 306 306 305 305 305 306 306 306 307 312 316 309 311 313 317 325 328 332 333 335
335 335 337 337 334 333 332 331 329 322 316 314 313 313 313 313 313 312 312 313 314 311 308 306 305 305 305 305 305 304 305 304 304 305 304 304 306 309 313 318 322 325 332
333 334 336 338 335 332 331 329 326 320 316 314 313 312 313 313 313 312 312 312 313 313 309 306 305 305 305 306 305 304 304 304 303 303 303 303 303 303 303 306 310 314 319
331 332 334 337 337 333 330 328 325 321 318 315 312 312 312 312 312 312 312 312 312 313 310 307 305 304 305 304 306 305 305 303 303 303 302 302 302 302 302 302 302 302 303
328 330 332 335 337 335 330 327 324 321 319 317 312 311 312 311 312 312 312 312 312 312 311 307 305 304 304 305 307 307 306 305 304 303 302 301 301 301 301 302 302 302 302
324 326 329 333 335 335 331 326 323 320 318 317 315 312 311 311 311 311 311 311 312 312 311 308 305 304 306 306 305 305 306 305 305 305 304 302 302 301 301 301 302 302 302
322 323 326 330 333 334 331 326 322 320 318 317 315 314 312 312 314 313 311 311 311 311 311 309 305 305 304 304 303 305 306 305 303 304 305 305 305 303 301 301 301 301 301
321 322 324 326 330 334 330 326 322 320 319 317 316 315 314 312 314 316 311 310 311 311 311 308 305 305 304 304 303 307 307 306 305 305 306 305 304 304 303 302 302 302 301
321 321 322 323 326 331 331 327 324 321 319 317 316 316 316 316 316 316 312 310 310 311 310 309 306 304 305 304 305 305 308 308 306 305 305 304 304 304 303 304 303 303 302
319 319 320 321 323 325 331 329 325 322 320 318 317 317 317 316 316 315 312 310 310 310 310 309 306 303 305 306 302 304 307 309 307 305 305 305 304 304 304 304 303 303 303
316 317 319 318 320 321 323 329 327 323 321 320 319 317 318 317 316 315 311 310 309 310 309 309 306 304 301 305 304 302 302 303 305 305 305 305 304 303 303 303 303 303 303
313 314 316 317 317 319 320 323 327 324 322 319 317 316 316 317 316 315 311 310 309 309 309 308 306 304 302 302 305 305 304 304 304 304 304 305 304 303 303 302 302 303 303
312 313 314 315 316 316 318 319 323 324 321 320 316 315 316 316 316 314 312 309 309 309 309 308 306 303 303 302 304 304 304 304 304 304 303 303 302 302 302 302 302 303 303